User: anonymous   Login
Location: Unspecified
(0.0000°N, 0.0000°E)
Time: 05:20:13
(UTC+00:00)
Language:

PLEIADES 1B - Orbit

View from above orbital plane
View from above orbital plane
View from above satellite
View from above satellite

Ground track
Ground track

The orbit data is extracted from the following two-line orbital elements,

1 39019U 12068A   16269.78141521  .00000059  00000-0  22584-4 0  9991
2 39019  98.1958 342.8026 0001349  77.9042 282.2299 14.58550613203170
Epoch (UTC): 25 September 2016 18:45:14
Eccentricity: 0.0001349
inclination: 98.1958°
perigee height: 697 km
apogee height: 699 km
right ascension of ascending node: 342.8026°
argument of perigee: 77.9042°
revolutions per day: 14.58550613
mean anomaly at epoch: 282.2299°
orbit number at epoch: 20317

The dashed part of the orbit path shows where the satellite is in the earth's shadow,  

DLR